GW3221 Weather Reports


time (UTC)temp
C
wind
direction
speed
KPH
gust
KPH
rain 1hr
cm
rain 24hr
cm
rain mn
cm
humidity
%
barometer
mb
20260505181538 28 163 3.2 12.9 0.00 0.00 0.00 42 1010.1
20260505180037 27 123 6.4 16.1 0.00 0.00 0.00 41 1010.3
20260505174539 28 296 4.8 11.3 0.00 0.00 0.00 41 1010.4
20260505173039 28 316 4.8 12.9 0.00 0.00 0.00 44 1010.6
20260505171537 28 162 4.8 12.9 0.00 0.00 0.00 47 1010.6
20260505170038 27 55 4.8 17.7 0.00 0.00 0.00 46 1010.7
20260505164538 27 155 4.8 16.1 0.00 0.00 0.00 46 1010.8
20260505163050 27 214 3.2 11.3 0.00 0.00 0.00 46 1010.9
20260505161540 27 288 3.2 14.5 0.00 0.00 0.00 45 1010.8
20260505153050 26 278 1.6 9.7 0.00 0.00 0.00 48 1011.3
20260505151545 26 150 3.2 6.4 0.00 0.00 0.00 47 1011.3
20260505124543 20 97 1.6 3.2 0.00 0.00 0.00 61 1012.1
20260505123041 20 142 1.6 6.4 0.00 0.00 0.00 62 1011.8
20260505121546 18 78 0.0 3.2 0.00 0.00 0.00 67 1011.9
20260505120038 17 134 1.6 4.8 0.00 0.00 0.00 69 1011.8
20260505114537 16 157 0.0 4.8 0.00 0.00 0.00 74 1011.8
20260505113044 14 0 0.0 1.6 0.00 0.00 0.00 76 1011.7
20260505111544 13 0 0.0 1.6 0.00 0.00 0.00 77 1011.8
20260505101544 12 275 0.0 1.6 0.00 0.00 0.00 76 1011.6
20260505100040 11 0 0.0 0.0 0.00 0.00 0.00 77 1011.3
20260505094538 12 0 0.0 0.0 0.00 0.00 0.00 77 1011.1
20260505093046 12 0 0.0 0.0 0.00 0.00 0.00 77 1011.0
20260505091537 12 0 0.0 0.0 0.00 0.00 0.00 77 1010.8
20260505090036 13 0 0.0 1.6 0.00 0.00 0.00 77 1010.7
20260505084540 13 275 1.6 3.2 0.00 0.00 0.00 76 1010.8
20260505083052 13 0 0.0 0.0 0.00 0.00 0.00 76 1010.8
20260505081537 13 0 0.0 0.0 0.00 0.00 0.00 75 1010.8
20260505080042 14 0 0.0 0.0 0.00 0.00 0.00 74 1011.0
20260505074537 14 307 0.0 3.2 0.00 0.00 0.00 74 1011.0
20260505073040 14 307 0.0 1.6 0.00 0.00 0.00 73 1011.0
20260505071536 14 307 0.0 1.6 0.00 0.00 0.00 72 1011.0
20260505070058 15 307 0.0 3.2 0.00 0.00 0.00 71 1010.8
20260505064538 15 65 0.0 3.2 0.00 0.00 0.00 70 1010.9
20260505063037 15 352 0.0 3.2 0.00 0.00 0.00 70 1010.8
20260505061553 15 205 0.0 3.2 0.00 0.00 0.00 70 1010.9
20260505060048 15 150 0.0 6.4 0.00 0.00 0.00 70 1010.8
20260505054546 15 184 0.0 4.8 0.00 0.00 0.00 70 1010.7
20260505053039 15 317 0.0 4.8 0.00 0.00 0.00 70 1010.9
20260505051537 13 0 0.0 1.6 0.00 0.00 0.00 72 1011.0
20260505041539 14 200 1.6 4.8 0.00 0.00 0.00 65 1010.9
20260505040052 15 0 0.0 4.8 0.00 0.00 0.00 62 1011.0
20260505034542 15 181 0.0 3.2 0.00 0.00 0.00 61 1011.0
20260505033036 14 204 0.0 4.8 0.00 0.00 0.00 62 1011.0
20260505031548 14 0 0.0 1.6 0.00 0.00 0.00 62 1011.1
20260505030043 15 0 0.0 0.0 0.00 0.00 0.00 60 1011.3
20260505024538 15 170 0.0 1.6 0.00 0.00 0.00 59 1011.3
20260505023040 15 179 0.0 4.8 0.00 0.00 0.00 58 1011.3
20260505021535 15 196 0.0 4.8 0.00 0.00 0.00 57 1011.3
20260505020043 15 176 0.0 6.4 0.00 0.00 0.00 57 1011.3
20260505014542 15 0 0.0 1.6 0.00 0.00 0.00 58 1011.3
20260505013037 14 0 0.0 3.2 0.00 0.00 0.00 58 1011.3
20260505011539 14 0 0.0 0.0 0.00 0.00 0.00 57 1011.1
20260505010045 15 0 0.0 0.0 0.00 0.00 0.00 56 1010.9
20260505004542 15 0 0.0 0.0 0.00 0.00 0.00 55 1010.6
20260505003038 16 0 0.0 0.0 0.00 0.00 0.00 52 1010.6
20260505001537 17 166 0.0 0.0 0.00 0.00 0.00 49 1010.6
20260505000048 18 0 0.0 3.2 0.00 0.00 0.00 47 1010.5
20260504234537 18 121 0.0 1.6 0.00 0.00 0.00 46 1010.4
20260504233044 19 0 0.0 3.2 0.00 0.00 0.00 44 1010.3
20260504231539 20 163 1.6 9.7 0.00 0.00 0.00 42 1010.2
20260504230040 20 304 1.6 12.9 0.00 0.00 0.00 41 1010.1
20260504224538 20 212 1.6 8.0 0.00 0.00 0.00 41 1010.2
20260504223037 21 281 1.6 8.0 0.00 0.00 0.00 41 1010.1
20260504221540 21 155 1.6 6.4 0.00 0.00 0.00 41 1010.1
20260504220048 22 343 1.6 11.3 0.00 0.00 0.00 39 1010.2
20260504214539 22 197 4.8 8.0 0.00 0.00 0.00 37 1010.2
20260504213055 23 285 3.2 11.3 0.00 0.00 0.00 36 1010.3
20260504211541 23 115 1.6 9.7 0.00 0.00 0.00 39 1010.2
20260504210036 23 312 3.2 8.0 0.00 0.00 0.00 37 1010.3
20260504204543 23 176 1.6 11.3 0.00 0.00 0.00 39 1010.5
20260504203040 23 269 1.6 9.7 0.00 0.00 0.00 37 1010.4
20260504201538 23 258 1.6 11.3 0.00 0.00 0.00 39 1010.6
20260504200038 23 268 1.6 6.4 0.00 0.00 0.00 38 1010.6
20260504194543 23 160 1.6 8.0 0.00 0.00 0.00 38 1010.6
20260504193054 23 327 3.2 9.7 0.00 0.00 0.00 39 1010.7
20260504191538 22 85 3.2 8.0 0.00 0.00 0.00 40 1010.8
20260504190040 22 204 3.2 14.5 0.00 0.00 0.00 34 1010.9
20260504184540 22 234 3.2 14.5 0.00 0.00 0.00 36 1011.3
20260504183044 22 312 3.2 6.4 0.00 0.00 0.00 40 1011.5